COSMOS 2251 DEB, 37331

Orbit data source: Space-Track

COSMOS 2251 DEB, 37331 is space debris in LEO originally from a launch on Wed, 16 Jun 1993 UTC launched from the Plesetsk Missile And Space Complex (PKMTR). The debris from Iridium 33, an American commercial communications satellite, has been tracked extensively since its accidental collision with the defunct Russian satellite Cosmos 2251 in 2009. This event, occurring at high speed in low Earth orbit (LEO), generated thousands of pieces of space debris, significantly increasing the risk of further collisions. The Iridium 33 debris cloud has impacted space traffic management and orbital debris mitigation strategies, making it a subject of ongoing study in space situational awareness.

Loading next visibility...
Identifier
37331, 1993-036BKX
Orbit
LEO
Country
Flag of CISCIS
Related business
Manufacturer
Unknown
Mission
Spacecraft
Bus & Motor
Unknown
Mass
Unknown
Launch date (UTC)
1993-06-16 (33 years ago)
Launch vehicle
Unknown
Launch site
Plesetsk Missile And Space Complex (PKMTR)
Object type
Payload
Rocket body
Debris
Shape & HBR
Unknown shape, 0.1 m
Radar Cross Section
Small (<0.1 m²)

Expand to show TLE details & history
Last TLE update: 16 hours ago

TLE from 16 hours ago
0 COSMOS 2251 DEB
1 37331U 93036BKX 25354.85914255  .00000859  00000-0  30498-3 0  9995
2 37331  74.0747  53.0207 0055285  64.7623 295.9246 14.35041344848767
Epoch: 2025-12-20T20:37Z
TLE epoch observation values (Epoch: 2025-12-20T20:37:09.916Z)
Latitude
0.00003°
Longitude
14.04949°
Altitude
760.427 km
Speed
7.483 km/s
True Right ascension
03h 32m 04s
True Declination
0° 00' 00"
Sunlit
Object was in full shadow at epoch
Visualization orbit readout
Latitude
Unknown
Longitude
Unknown
Altitude
Unknown
Speed
Unknown
Apparent Right ascension
Unknown
Apparent Declination
Unknown
Sunlit
N/A
Visualization observer readout
Local Sidereal Time
11:09:00
Azimuth
Unknown
Elevation
Unknown
Doppler factor
Unknown
Orbital elements
Apogee altitude
812.083 km
Perigee altitude
733.018 km
Semi-major axis
7,150.688 km
Eccentricity
0.00553
Inclination
74.0747°
RAAN
53.0207°
Arg. of periapsis
64.7623°
True anomaly
295.35311°
Mean anomaly
295.9246°
Eccentric anomaly
295.63903°
Mean motion
3.5894 °/min
Orbital period
100.3 mins
BSTAR
0.00030498

Documentation

Showing up to 5 results
|